This is the latest recevied weather packets stored in our database for station/object K8KCS-13. If no packets are shown the sender has not sent any weather packets the latest 10 day(s).
| Time | Temp. | Humidity | Pressure | Rain* | Wind** | Luminosity | Snow |
|---|---|---|---|---|---|---|---|
| 1788568054 | 22.78° C | 90% | 1015.4 hPa | 0 mm | - | 0 W/m² | - |
| 1788567754 | 23.33° C | 89% | 1015.5 hPa | 0 mm | - | 0 W/m² | - |
| 1788567449 | 23.33° C | 88% | 1015.4 hPa | 0 mm | - | 0 W/m² | - |
| 1788567148 | 23.33° C | 88% | 1015.3 hPa | 0 mm | - | 0 W/m² | - |
| 1788566843 | 23.89° C | 87% | 1015.4 hPa | 0 mm | - | 0 W/m² | - |
| 1788566539 | 23.89° C | 86% | 1015.4 hPa | 0 mm | - | 1 W/m² | - |
| 1788566234 | 23.89° C | 86% | 1015.6 hPa | 0 mm | - | 3 W/m² | - |
| 1788565929 | 24.44° C | 85% | 1015.7 hPa | 0 mm | - | 6 W/m² | - |
| 1788565629 | 24.44° C | 84% | 1015.5 hPa | 0 mm | - | 14 W/m² | - |
| 1788565325 | 24.44° C | 84% | 1015.6 hPa | 0 mm | - | 23 W/m² | - |
| 1788565020 | 25° C | 83% | 1015.6 hPa | 0 mm | - | 26 W/m² | - |
| 1788564716 | 25° C | 82% | 1015.8 hPa | 0 mm | - | 27 W/m² | - |
| 1788564413 | 25.56° C | 80% | 1015.8 hPa | 0 mm | - | 30 W/m² | - |
| 1788564109 | 26.11° C | 78% | 1015.7 hPa | 0 mm | - | 48 W/m² | - |
| 1788563499 | 26.11° C | 80% | 1016 hPa | 0 mm | - | 61 W/m² | - |
| 1788563198 | 25° C | 82% | 1016 hPa | 0 mm | - | 61 W/m² | - |
| 1788562894 | 25° C | 82% | 1016 hPa | 0 mm | - | 45 W/m² | - |
| 1788562591 | 25° C | 82% | 1015.9 hPa | 0 mm | - | 30 W/m² | - |
| 1788562287 | 25° C | 82% | 1016.2 hPa | 0 mm | - | 33 W/m² | - |
| 1788561981 | 25° C | 82% | 1016.2 hPa | 0 mm | - | 42 W/m² | - |
| 1788561676 | 25° C | 82% | 1016.2 hPa | 0 mm | - | 37 W/m² | - |
| 1788561375 | 25° C | 82% | 1015.9 hPa | 0 mm | - | 38 W/m² | - |
| 1788561070 | 25° C | 81% | 1016 hPa | 0 mm | - | 37 W/m² | - |
| 1788560766 | 25° C | 81% | 1015.9 hPa | 0 mm | - | 24 W/m² | - |
| 1788560461 | 25° C | 80% | 1015.8 hPa | 0 mm | - | 21 W/m² | - |
* Rain latest hour (hover to see other rain measurements)
** Current wind speed in m/s (hover to see current wind gust speed)